Probability
0 0 0 0 0 0 0 0 0 0 0 0 0 0 0 0 0 0 0 0 0 0 0 0 1 0 0 0 0 0 0 0 0 0 0 0 0 0 0 0 0 0 0
0 0 0 0 0 0 0 0 0 0 0 0 0 0 0 0 0 0 0 0 0 0 0 0 1 0 0 0 0 0 0 0 0 0 0 0 0 0 0 0 0 0 0
0 0 0 0 0 0 0 0 0 0 0 0 0 0 0 0 0 0 0 0 0 0 0 0 1 1 0 0 0 0 0 0 0 0 0 0 0 0 0 0 0 0 0
0 0 0 0 0 0 0 0 0 0 0 0 0 0 0 0 0 0 0 0 0 0 0 0 0 1 1 2 1 0 0 0 0 0 0 0 0 0 0 0 0 0 0
0 0 0 0 0 0 0 0 0 0 0 0 0 0 0 0 0 0 0 0 0 0 0 0 0 1 2 3 2 0 0 1 1 1 0 0 0 0 0 0 0 0 0
0 0 0 0 0 0 0 0 0 0 0 0 0 0 0 0 0 0 0 0 0 0 0 0 0 1 2 3 2 1 1 1 2 1 0 0 0 0 0 0 0 0 0
0 0 0 0 0 0 0 0 0 0 0 0 0 0 0 0 0 0 0 0 0 0 0 0 0 0 1 1 2 2 2 3 2 1 0 0 0 0 0 0 0 0 0
0 0 0 0 0 0 0 0 0 0 0 0 0 0 0 0 0 0 0 0 0 0 0 0 0 0 0 0 1 2 3 3 2 1 0 1 1 1 0 0 0 0 0
0 0 0 0 0 0 0 0 0 0 0 0 0 0 0 0 0 0 0 0 0 0 0 0 0 0 0 0 1 1 2 2 2 1 1 3 3 2 0 0 0 0 0
0 0 0 0 0 0 0 0 0 0 0 0 0 0 0 0 0 0 0 0 0 0 0 0 0 0 0 0 0 0 0 1 2 2 3 5 4 2 0 0 0 0 0
0 0 0 0 0 0 0 0 0 0 0 0 0 0 0 0 0 0 0 0 0 0 0 0 0 0 0 0 0 0 0 1 2 2 4 7 6 2 0 0 0 0 0
0 0 0 0 0 0 0 0 0 0 0 0 0 0 0 0 0 0 0 0 0 0 0 0 0 0 0 0 0 0 0 0 1 2 5 8 7 3 1 0 0 0 0
0 0 0 0 0 0 0 0 0 0 0 0 0 0 0 0 0 0 0 0 0 0 0 0 0 0 0 0 0 0 0 0 1 3 5 8 7 4 2 1 0 0 0
0 0 0 0 0 0 0 0 0 0 0 0 0 0 0 0 0 0 0 0 0 0 0 0 0 0 0 0 0 0 0 1 3 4 4 5 5 4 3 2 1 0 0
0 0 0 0 0 0 0 0 0 0 0 0 0 0 0 0 0 0 0 0 0 0 0 0 0 0 0 0 0 0 1 1 3 4 3 2 2 2 3 2 1 0 0
0 0 0 0 0 0 0 0 0 0 0 0 0 0 0 0 0 0 0 0 0 0 0 0 0 0 0 0 0 0 0 1 2 2 1 0 1 2 2 1 0 0 0
0 0 0 0 0 0 0 0 0 0 0 0 0 0 0 0 0 0 0 0 0 0 0 0 0 0 0 0 0 0 0 0 1 1 1 1 1 1 2 1 0 0 0
0 0 0 0 0 0 0 0 0 0 0 0 0 0 0 0 0 0 0 0 0 0 0 0 0 0 0 0 0 0 0 0 0 1 1 2 1 1 1 0 0 1 1
0 0 0 0 0 0 0 0 0 0 0 0 0 0 0 0 0 0 0 0 0 0 0 0 0 0 0 0 0 0 0 0 0 0 2 3 2 1 0 0 0 0 0
0 0 0 0 0 0 0 0 0 0 0 0 0 0 0 0 0 0 0 0 0 0 0 0 0 0 0 0 0 0 0 0 0 0 1 2 2 1 0 0 0 0 0
0 0 0 0 0 0 0 0 0 0 0 0 0 0 0 0 0 0 0 0 0 0 0 0 0 0 0 0 0 0 0 0 0 0 0 0 1 1 0 0 0 1 1
0 0 0 0 0 1 1 1 0 0 0 0 0 0 0 0 0 0 0 0 0 0 0 0 0 0 0 0 0 0 0 0 0 0 0 0 0 0 0 0 0 0 0
1 0 0 1 1 2 2 1 0 0 0 0 0 0 0 0 0 0 0 0 0 0 0 0 0 0 0 0 0 0 0 0 0 0 0 0 0 0 0 0 0 0 0
2 1 1 1 2 3 3 2 1 0 0 0 0 0 0 0 0 0 0 0 0 0 0 0 0 0 0 0 0 0 0 0 0 0 0 0 0 0 0 0 0 0 0
3 3 2 1 1 2 3 2 1 0 0 0 0 0 0 0 0 0 0 0 0 0 0 0 0 0 0 0 0 0 0 0 0 0 0 0 0 0 0 0 0 0 0
2 3 2 1 0 1 2 1 0 0 0 0 0 0 0 0 0 0 0 0 0 0 0 0 0 0 0 0 0 0 0 0 0 0 0 0 0 0 0 0 0 0 0
Wind_Speed
9 11 11 11 11 10 10 10 10 9 9 9 9 8 8 8 7 7 7 7 7 7 7 7 7 7 8 8 7 7 7 7 7 7 6 5 5 7 8 9 9 7 11
13 12 12 11 11 10 10 10 10 10 9 9 9 9 8 8 7 7 6 6 6 6 6 6 6 7 7 7 7 7 7 7 6 6 5 3 3 5 7 9 10 6 10
14 12 11 11 11 11 10 10 10 10 9 9 9 8 8 8 7 7 6 6 6 6 6 6 6 6 6 6 6 6 6 6 7 7 7 2 2 5 7 8 8 8 9
13 11 11 11 11 11 10 10 10 9 9 9 8 8 8 7 7 6 6 6 5 5 5 5 5 5 5 5 5 5 5 6 7 8 4 2 3 7 6 7 7 7 8
14 13 11 11 11 11 10 10 9 9 9 8 8 8 7 7 6 6 6 6 5 5 5 5 5 5 5 5 5 5 5 6 8 7 3 2 4 5 6 6 6 6 7
14 13 11 12 11 11 10 10 9 9 8 8 7 7 7 6 6 6 5 5 5 5 5 5 5 4 4 4 4 5 6 7 8 4 1 2 4 5 5 4 5 5 6
13 13 12 12 11 10 10 9 9 8 8 7 7 6 6 5 5 5 5 5 5 5 5 5 5 5 4 4 4 4 5 7 5 4 1 3 5 6 5 3 3 4 5
11 13 12 12 12 11 10 9 8 7 7 6 5 4 4 3 3 3 3 4 4 4 4 5 5 5 5 4 5 5 5 7 6 5 2 3 8 7 5 3 3 3 4
9 11 11 10 10 10 10 8 7 5 4 2 2 2 2 3 3 2 1 2 3 4 4 4 5 5 5 5 5 6 6 6 5 4 3 3 8 7 5 3 2 3 3
7 7 8 9 9 9 7 8 7 5 4 3 2 4 5 6 6 6 3 1 2 3 4 5 5 6 6 6 7 7 7 6 5 5 1 5 8 7 5 3 2 3 3
5 5 6 6 6 7 8 9 8 7 6 5 5 7 7 4 2 4 3 4 3 3 5 5 6 7 8 8 9 9 6 4 5 2 2 7 8 6 4 3 2 3 4
5 4 5 5 4 4 3 5 3 4 4 3 1 2 2 2 2 2 2 4 5 6 7 7 9 9 7 4 6 8 4 5 4 1 3 8 7 5 4 4 3 4 5
6 4 4 4 4 4 3 2 1 0 1 1 2 2 1 2 2 2 0 2 3 5 3 3 5 4 4 2 1 3 4 2 1 1 4 7 6 5 4 4 4 5 5
6 4 4 3 4 5 4 2 1 1 2 2 3 4 3 2 2 2 2 1 2 1 1 2 2 3 3 3 3 2 2 1 0 1 3 7 5 5 5 5 5 5 6
6 5 5 3 4 5 4 1 1 3 2 2 2 2 3 2 2 2 2 1 2 2 2 2 3 3 3 3 3 2 1 1 1 1 3 6 6 5 5 5 6 6 6
6 6 5 3 3 2 2 1 3 2 2 2 3 2 2 2 2 2 3 3 3 3 2 2 3 3 3 2 3 2 1 1 1 0 2 4 5 5 5 6 6 6 6
7 7 6 4 3 4 5 4 3 2 3 3 2 3 4 3 3 3 3 3 3 3 3 3 4 3 4 3 3 2 1 0 1 1 1 3 3 4 5 6 6 6 6
6 8 7 4 4 5 4 3 3 3 3 2 2 3 6 6 5 3 3 3 4 3 3 3 2 3 3 3 3 2 1 0 1 2 0 2 2 2 4 6 6 6 6
5 7 8 6 5 5 4 2 2 3 2 2 3 4 5 6 6 4 2 2 4 3 3 4 3 3 3 3 3 2 1 0 1 1 0 2 2 3 3 5 6 6 5
5 5 8 7 5 5 2 1 2 2 2 2 3 4 3 3 4 4 3 4 4 3 3 3 4 4 2 2 3 2 1 1 0 0 1 1 2 2 3 3 3 4 5
5 4 6 7 5 4 2 1 2 2 1 2 2 3 2 3 4 3 3 3 2 3 3 4 3 5 3 2 2 2 1 0 0 1 1 2 2 1 2 2 2 3 3
5 4 5 6 6 5 2 1 2 2 1 2 0 2 1 3 4 5 4 4 3 2 3 3 3 3 3 3 1 1 2 2 2 1 1 1 1 1 1 1 2 3 3
5 5 3 5 7 6 4 2 2 2 1 1 1 1 1 1 2 3 4 4 4 3 3 3 3 3 3 3 2 1 1 1 1 1 1 1 1 1 1 0 1 2 3
5 4 4 5 6 5 5 3 2 1 0 1 0 1 0 2 1 1 2 3 3 2 3 4 4 3 3 3 3 2 0 0 0 0 1 1 1 2 1 1 1 1 2
3 3 3 4 5 5 4 4 1 0 0 0 0 1 0 1 2 1 0 2 3 2 3 3 3 3 2 2 2 2 2 2 1 1 0 0 1 1 1 1 1 1 1
4 4 4 4 4 4 3 3 3 2 2 2 2 1 1 1 1 2 1 1 2 2 2 2 2 3 2 2 2 2 2 1 2 1 1 0 0 0 1 1 1 1 1
Wind_Direction
103 103 104 101 97 92 88 84 81 78 76 74 71 69 67 65 63 60 56 53 51 50 46 42 40 35 34 35 33 29 27 25 27 24 26 32 43 45 41 38 41 49 47
109 105 102 99 96 92 87 83 80 76 73 72 70 68 65 63 61 57 51 48 44 42 38 35 33 29 26 26 24 20 17 12 7 357 349 357 53 64 53 49 49 46 46
108 109 101 95 94 92 88 84 79 75 72 70 67 64 61 59 55 49 43 39 36 33 31 29 25 22 16 12 10 10 7 356 346 335 323 311 100 84 66 57 53 46 48
106 103 98 97 94 91 87 83 79 76 71 69 66 63 59 55 51 46 39 33 31 28 25 21 19 17 10 5 360 357 352 341 332 327 325 36 85 88 73 60 54 48 50
102 99 99 98 95 91 86 82 79 75 70 67 63 59 54 49 44 41 36 32 28 21 14 10 7 4 356 352 348 341 335 330 326 318 313 67 82 86 71 59 53 50 50
109 105 105 101 97 92 87 82 78 74 70 64 59 54 48 43 38 34 31 24 19 13 4 358 355 348 339 339 332 325 321 319 317 305 327 95 102 97 81 64 54 56 55
112 114 116 112 106 100 93 86 80 73 69 61 53 46 41 37 36 33 27 19 11 6 1 355 346 335 325 318 314 309 310 311 288 287 268 123 120 118 98 77 67 63 66
114 118 122 122 118 112 104 96 86 76 68 59 50 38 26 17 14 13 14 17 8 357 350 347 338 328 314 305 299 298 301 301 305 310 294 135 133 124 111 100 93 84 77
116 126 135 140 135 130 123 117 111 101 89 73 39 344 313 298 284 273 302 20 3 346 334 327 325 319 305 292 286 285 288 290 293 285 281 124 133 129 124 122 117 112 102
124 130 139 149 147 149 146 144 145 151 166 192 231 261 268 267 254 250 230 145 329 323 315 310 305 301 291 279 271 267 269 279 264 264 242 132 131 127 126 132 137 135 129
129 135 133 135 137 151 157 156 172 181 202 221 220 242 266 270 219 219 154 168 230 267 279 284 283 282 277 268 256 251 255 250 253 241 116 131 131 130 136 149 156 153 144
148 141 132 127 131 122 96 137 178 168 179 215 151 205 271 354 351 349 142 210 237 254 264 264 268 276 267 251 241 229 240 244 259 231 135 137 134 137 148 165 172 160 155
137 126 126 126 115 107 104 93 75 109 144 145 57 356 5 16 352 4 0 217 243 247 257 271 257 262 266 257 232 208 230 254 244 118 124 128 135 149 161 173 174 168 164
123 118 102 95 107 94 78 57 193 88 56 55 47 7 34 10 339 15 318 14 331 336 349 320 286 283 294 303 286 252 243 262 288 108 132 134 142 162 169 173 176 172 168
122 123 94 65 67 93 104 264 70 86 44 74 82 351 26 10 358 358 329 6 337 351 348 325 311 319 317 311 309 310 327 325 310 97 130 145 148 164 176 180 180 174 172
145 136 127 122 103 100 115 77 68 64 120 58 73 348 6 35 358 6 358 360 356 343 336 316 314 329 322 315 308 309 305 318 308 81 144 150 159 170 180 185 180 175 172
148 135 122 116 101 76 60 36 54 63 57 47 61 1 10 30 15 34 13 0 350 339 342 340 340 342 326 323 309 297 301 298 312 302 155 154 164 177 180 177 174 170 171
142 129 129 127 107 92 77 45 26 52 49 32 47 30 15 17 16 31 26 357 341 352 354 338 347 344 332 330 325 320 327 94 297 301 223 150 147 157 165 166 159 161 167
129 133 138 127 115 98 102 128 72 55 54 39 52 50 23 4 7 28 1 343 2 1 356 340 2 348 330 326 305 274 279 246 253 283 272 136 135 138 143 158 158 161 168
125 136 123 117 118 115 112 117 99 76 38 61 59 61 29 350 6 14 348 20 11 354 352 345 352 337 312 299 308 331 286 240 157 317 18 104 127 142 137 149 155 168 170
142 144 130 139 139 126 124 107 90 80 37 77 77 79 1 360 10 9 2 360 5 355 354 350 351 338 329 340 356 339 319 260 128 116 74 74 75 98 120 146 157 146 162
152 167 163 150 138 130 126 119 123 105 71 102 86 115 41 32 19 2 12 352 358 352 359 351 359 350 335 354 5 354 355 8 350 88 99 108 96 94 96 156 143 141 147
161 183 173 137 137 140 138 99 64 72 312 103 148 112 102 84 46 12 356 351 342 5 356 346 16 4 342 333 6 41 31 343 336 7 74 102 111 103 101 100 130 140 145
168 176 161 141 138 134 134 117 121 115 18 86 66 116 186 144 104 48 359 342 337 357 3 1 22 349 349 343 342 356 339 209 120 4 353 50 96 95 84 73 93 104 130
115 112 106 108 114 118 123 134 153 199 296 64 39 101 305 145 145 134 348 318 325 349 16 5 4 350 348 352 341 339 347 351 329 133 148 22 47 49 72 67 78 77 124
85 88 91 98 102 112 133 156 175 200 217 234 229 188 269 229 178 153 162 316 332 6 6 356 349 352 358 351 343 341 350 4 352 42 121 161 121 54 73 64 76 78 108